Flag for Poland Weather past 2 weeks in Zielona Góra, Poland

Now
60 °F

Passing clouds.


Feels Like: 60 °F
Forecast: 49 / 66 °F
Wind: 2 mph from Southeast

Location: Zielona Gora


UV Index: 3 (Moderate)

Visibility: 13 mi


Pressure: 29.96 "Hg

Humidity: 57%

Dew point: 44 °F

Location of Zielona GóraLocation

Historic Weather in Zielona Góra

°F

Zielona Góra temperature yesterday

Maximum temperature yesterday: 70 °F (at 4:00 PM)
Minimum temperature yesterday: 40 °F (at 5:00 AM)
Average temperature yesterday: 55 °F

Past Weeks' High & Low Weather Summary

 TemperatureHumidityPressure
High70 °F (Apr 19, 4:00 PM)97% (Apr 10, 6:00 AM)30.42 "Hg (Apr 10, 6:00 AM)
Low35 °F (Apr 16, 6:00 AM)35% (Apr 17, 4:00 PM)29.68 "Hg (Apr 14, 3:00 PM)
Average48 °F71%30.03 "Hg
* Reported Apr 4 10:00 PM — Apr 19 10:00 PM, Zielona Góra, Weather by CustomWeather, © 2014

Note: Actual official high and low records may vary slightly from our data, if they occured in-between our weather recording intervals... More about our weather records

Advertising

Historic Weather Conditions — Data for Previous 24 hours

 ConditionsComfort  
Time TempWeatherWind HumidityBarometerVisibility
10:00 PM
Apr 19
62 °FPassing clouds.5 mph51%29.95 "Hg16 mi
9:00 PM63 °FPassing clouds.3 mph49%29.95 "Hg16 mi
8:00 PM66 °FPartly sunny.5 mph45%29.94 "Hg16 mi
7:00 PM68 °FPartly sunny.3 mph41%29.94 "Hg16 mi
6:00 PM68 °FScattered clouds.6 mph40%29.94 "Hg19 mi
5:00 PM69 °FScattered clouds.6 mph39%29.95 "Hg14 mi
4:00 PM70 °FScattered clouds.6 mph36%29.96 "Hg12 mi
3:00 PM70 °FScattered clouds.6 mph42%29.97 "Hg12 mi
2:00 PM67 °FPassing clouds.5 mph51%29.99 "Hg9 mi
1:00 PM63 °FPassing clouds.5 mph62%30.01 "Hg7 mi
12:00 PM59 °FSunny.3 mph68%30.03 "Hg7 mi
11:00 AM55 °FSunny.3 mph74%30.04 "Hg6 mi
10:00 AM52 °FFog.5 mph80%30.04 "Hg5 mi
9:00 AM49 °FFog.2 mph84%30.03 "Hg5 mi
8:00 AM44 °FFog.3 mph88%30.03 "Hg4 mi
7:00 AM42 °FOvercast.2 mph90%30.03 "Hg6 mi
6:00 AM41 °FOvercast.5 mph89%30.03 "Hg6 mi
5:00 AM40 °FOvercast.3 mph93%30.02 "Hg6 mi
4:00 AM41 °FOvercast.3 mph93%30.03 "Hg6 mi
3:00 AM41 °FPassing clouds.2 mph93%30.03 "Hg6 mi
2:00 AM42 °FPassing clouds.2 mph92%30.02 "Hg9 mi
1:00 AM41 °FClear.1 mph95%30.02 "Hg6 mi
12:00 AM42 °FPassing clouds.2 mph92%30.00 "Hg9 mi
Weather by CustomWeather, © 2014

See weather overview